This is the latest recevied weather packets stored in our database for station/object OE3BCB-14. If no packets are shown the sender has not sent any weather packets the latest 10 day(s).
| Time | Temp. | Humidity | Pressure | Rain* | Wind** | Luminosity | Snow |
|---|---|---|---|---|---|---|---|
| 1777702697 | 18.33° C | 51% | 1027.5 hPa | - | - | 143 W/m² | - |
| 1777702394 | 17.78° C | 51% | 1027.5 hPa | - | - | 140 W/m² | - |
| 1777702092 | 17.22° C | 51% | 1027.6 hPa | - | - | 135 W/m² | - |
| 1777701789 | 16.67° C | 51% | 1027.5 hPa | - | - | 131 W/m² | - |
| 1777701487 | 16.67° C | 52% | 1027.5 hPa | - | - | 127 W/m² | - |
| 1777701185 | 16.11° C | 52% | 1027.5 hPa | - | - | 124 W/m² | - |
| 1777700882 | 15.56° C | 52% | 1027.6 hPa | - | - | 121 W/m² | - |
| 1777700580 | 15° C | 52% | 1027.6 hPa | - | - | 116 W/m² | - |
| 1777699975 | 15° C | 53% | 1027.6 hPa | - | - | 40 W/m² | - |
| 1777699673 | 14.44° C | 53% | 1027.6 hPa | - | - | 29 W/m² | - |
| 1777699370 | 13.33° C | 53% | 1027.6 hPa | - | - | 31 W/m² | - |
| 1777699068 | 13.33° C | 53% | 1027.6 hPa | - | - | 76 W/m² | - |
| 1777698765 | 12.78° C | 53% | 1027.7 hPa | - | - | 86 W/m² | - |
| 1777698463 | 12.22° C | 54% | 1027.7 hPa | - | - | 80 W/m² | - |
| 1777698160 | 12.22° C | 54% | 1027.6 hPa | - | - | 72 W/m² | - |
| 1777697858 | 11.67° C | 54% | 1027.6 hPa | - | - | 64 W/m² | - |
| 1777697556 | 11.11° C | 54% | 1027.5 hPa | - | - | 57 W/m² | - |
| 1777697253 | 11.11° C | 54% | 1027.5 hPa | - | - | 49 W/m² | - |
| 1777696951 | 10.56° C | 54% | 1027.5 hPa | - | - | 43 W/m² | - |
| 1777696648 | 10° C | 54% | 1027.5 hPa | - | - | 37 W/m² | - |
| 1777696346 | 10° C | 54% | 1027.5 hPa | - | - | 31 W/m² | - |
| 1777696044 | 9.44° C | 54% | 1027.5 hPa | - | - | 23 W/m² | - |
| 1777695741 | 9.44° C | 54% | 1027.5 hPa | - | - | 17 W/m² | - |
| 1777695439 | 8.89° C | 54% | 1027.6 hPa | - | - | 17 W/m² | - |
| 1777695136 | 8.33° C | 54% | 1027.5 hPa | - | - | 15 W/m² | - |
* Rain since midnight (hover to see other rain measurements)
** Current wind speed in m/s (hover to see current wind gust speed)